Regional Weather Roundup
Issued by NWS

Home | Current Version | Previous Version | Text Only | Print | Product List | Glossary Off
Versions: 1 2 3 4 5 6 7 8 9 10 11 12 13 14 15 16 17 18 19 20 21 22 23 24 25 26 27 28 29 30 31 32 33 34 35 36 37 38 39 40 41 42 43 44 45 46 47 48 49 50

000
ASUS43 KMPX 180810
RWRMN
WEATHER ROUNDUP FOR MINNESOTA
NATIONAL WEATHER SERVICE TWIN CITIES/CHANHASSEN MN
300 AM CDT FRI AUG 18 2017


NOTE: "FAIR" INDICATES FEW OR NO CLOUDS BELOW 12,000 FEET WITH NO
SIGNIFICANT WEATHER AND/OR OBSTRUCTIONS TO VISIBILITY. N/A MEANS
CURRENT SKY AND/OR WEATHER CONDITIONS ARE NOT AVAILABLE.

MNZ060>063-068>070-180900-
   Twin Cities Metro

CITY           SKY/WX    TMP DP  RH WIND       PRES   REMARKS
TWIN CITIES    CLEAR     62  58  86 NW3       29.86S
ST PAUL        CLEAR     62  59  90 NW3       29.86S
CRYSTAL        CLEAR     58  55  90 CALM      29.85S
BLAINE         CLEAR     61  61 100 CALM      29.86S
LAKEVILLE      CLEAR     57  57 100 W3        29.88R
EDEN PRAIRIE   CLEAR     62  59  90 W3        29.86R
SOUTH ST PAUL  CLEAR     62  60  91 CALM      29.86S
LAKE ELMO      FAIR      59  57  94 W6        29.87S
$$
MNZ001>005-007-008-013>017-022>024-027-028-180900-
   Northwest Minnesota

CITY           SKY/WX    TMP DP  RH WIND       PRES   REMARKS
BEMIDJI        FOG       52  52  98 CALM      29.86S VSB 1
HALLOCK        CLEAR     52  50  93 CALM      29.82R
ROSEAU         CLEAR     54  48  82 CALM      29.82S FOG
WARROAD        CLEAR     55  52  88 CALM      29.82S
THIEF RVR FALL CLEAR     56  54  93 CALM      29.86R
CROOKSTON      PTCLDY    57  55  94 S3        29.85S
FOSSTON        CLEAR     54  54 100 S5        29.87R
DETROIT LAKES  CLEAR     59  55  88 CALM      29.89R
MOORHEAD       PTCLDY    59  57  94 CALM      29.87R
PARK RAPIDS    CLEAR     56  54  93 CALM      29.87R
MAHNOMEN       FAIR      56  55  97 S3        29.86S
$$
MNZ006-009>011-018-025>026-180900-
   North Central Minnesota

CITY           SKY/WX    TMP DP  RH WIND       PRES   REMARKS
BAUDETTE       CLEAR     53  53 100 CALM      29.81R FOG
FLAG ISLAND    CLEAR     63  55  77 CALM      29.80S
INTL FALLS     PTCLDY    48  47  96 CALM      29.81S FOG
WASKISH        CLEAR     50  48  93 W6        29.84R
BIG FORK       FOG       48  46  93 CALM      29.85R VSB 1/2
LONGVILLE        N/A     55  54  94 CALM      29.86R FOG
GRAND RAPIDS   CLEAR     54  54 100 CALM      29.86R FOG
CRANE LAKE     CLOUDY    52  52 100 CALM      29.82S FOG
ORR            PTCLDY    52  48  87 CALM      29.80R FOG
COOK           FOG       50  48  93 CALM      29.82R VSB 1/2
WALKER         FAIR      55  55  99 CALM      29.86R
$$
MNZ012-019>021-037-180900-
   Northeast Minnesota

CITY           SKY/WX    TMP DP  RH WIND       PRES   REMARKS
DULUTH         CLOUDY    58  57  97 NW6       29.80R
ELY            CLOUDY    57  57 100 NW3       29.79S
HIBBING        CLEAR     49  48  97 W3        29.83R FOG
EVELETH        CLEAR     58  55  90 NW3       29.83R
DULUTH HARBOR  MOCLDY    63  59  88 NW5       29.80R
TWO HARBORS    CLOUDY    64  59  82 CALM      29.76R
SILVER BAY     MOCLDY    63  59  88 CALM      29.74S
GRAND MARAIS     N/A     64  58  80 VRB3      29.70R
G MARAIS ARPRT CLOUDY    57  52  82 N12G21    29.73S
$$
MNZ029>031-032-039>041-046>048-054>057-064-180900-
   West Central Minnesota

CITY           SKY/WX    TMP DP  RH WIND       PRES   REMARKS
FERGUS FALLS   CLOUDY    61  61 100 S3        29.88R
WHEATON        CLOUDY    63  57  82 CALM      29.89S
MORRIS         CLOUDY    63  61  94 CALM      29.88S
ALEXANDRIA     CLOUDY    61  59  93 SW5       29.90S
ELBOW LAKE     CLOUDY    60  59  99 W5        29.89S
WADENA         CLOUDY    57  57 100 CALM      29.87S FOG
GLENWOOD       PTCLDY    61  61 100 W5        29.90R
APPLETON       CLOUDY    63  57  82 CALM      29.87F
BENSON         CLOUDY    61  57  88 CALM      29.90S
ORTONVILLE     CLOUDY    63  57  82 MISG      29.87F
MADISON        CLOUDY    64  64 100 CALM      29.87F
WILLMAR        FAIR      61  59  94 CALM      29.90F
$$
MNZ033>034-036-042>043-049>051-058-059-180900-
   Central Minnesota

CITY           SKY/WX    TMP DP  RH WIND       PRES   REMARKS
ST CLOUD       CLEAR     56  56 100 CALM      29.87S
SAUK CENTRE    FAIR      56  56  99 CALM      29.89S
PAYNESVILLE    PTCLDY    55  55 100 W6        29.90R
AITKIN         CLEAR     55  55 100 W3        29.84R
PINE RIVER     CLEAR     52  52 100 CALM      29.91R
BRAINERD       CLEAR     54  54 100 S3        29.87R
STAPLES        CLOUDY    55  55 100 CALM      29.88R
LONG PRAIRIE   FAIR      55  54  94 CALM      29.89S FOG
LITTLE FALLS     N/A     52  52 100 CALM      29.88S FOG
LITCHFIELD     CLEAR     61  61 100 W3        29.90R
BUFFALO        CLEAR     58  55  89 CALM      29.88S
MAPLE LAKE     CLEAR     58  58  97 CALM      29.88S
HUTCHINSON       N/A     57  57 100 W3        29.90S FOG
$$
MNZ037-044-045-052-053-180900-
   East Central Minnesota

CITY           SKY/WX    TMP DP  RH WIND       PRES   REMARKS
PRINCETON      CLEAR     57  55  94 CALM      29.87S
MORA           CLEAR     54  54 100 CALM      29.87S
RUSH CITY      PTCLDY    57  55  95 W3        29.86R
MOOSE LAKE     CLEAR     55  52  88 W7        29.83R
HINCKLEY       FAIR      55  55 100 W5        29.85R
CLOQUET        CLEAR     55  52  88 W6        29.83R
MCGREGOR       CLEAR     54  52  94 CALM      29.85R
$$
MNZ071>073-080-081-089-090-097-098-180900-
   Southwest Minnesota

CITY           SKY/WX    TMP DP  RH WIND       PRES   REMARKS
MONTEVIDEO     CLOUDY    61  59  94 CALM      29.88F
GRANITE FALLS  CLOUDY    63  61  94 CALM      29.90F
CANBY          CLOUDY    62  60  93 CALM      29.89F
MARSHALL       MOCLDY    61  59  93 SW6       29.90S
REDWOOD FALLS  CLOUDY    62  58  86 SW3       29.89F
OLIVIA         MOCLDY    59  57  94 CALM      29.89F
PIPESTONE      LGT RAIN  63  61  94 SW7       29.92F
WINDOM         CLOUDY    59  57  94 CALM      29.91F
WORTHINGTON    LGT RAIN  61  58  90 SW6       29.94F
JACKSON        CLOUDY    61  59  94 CALM      29.94F
TRACY          CLOUDY    63  60  91 SW5       29.91F
SLAYTON        CLOUDY    60  55  82 S5        29.93F
$$
MNZ065>067-074>077-082>085-091>093-180900-
   South Central Minnesota

CITY           SKY/WX    TMP DP  RH WIND       PRES   REMARKS
MANKATO        CLEAR     60  59  96 CALM      29.89S
NEW ULM        CLOUDY    57  55  94 W5        29.90R
ST JAMES       PTCLDY    61  59  94 W6        29.92R
FAIRMONT       PTCLDY    64  60  87 NW10      29.93R
GLENCOE        CLEAR     60  61 100 CALM      29.88S
FARIBAULT      CLEAR     61  59  94 W6        29.89R
OWATONNA       CLEAR     57  55  94 W6        29.89R
WASECA           N/A     55  55 100 CALM      29.91R FOG
ALBERT LEA     CLEAR     63  63 100 CALM      29.90R
$$
MNZ078>079-086>088-094>096-180900-
   Southeast Minnesota

CITY           SKY/WX    TMP DP  RH WIND       PRES   REMARKS
ROCHESTER      CLEAR     58  58 100 NW7       29.87S
RED WING       CLEAR     63  57  82 W3        29.84S
STANTON        CLEAR     60  58  92 W5        29.86R
DODGE CENTER   CLEAR     57  55  94 W6        29.89R
WINONA         CLOUDY    70  63  78 NW9       29.83R
AUSTIN         CLEAR     61  59  94 W7        29.89R
PRESTON        CLEAR     60  57  91 NW8       29.87S
$$
ABBREVIATIONS USED IN REMARKS
   TC - TEMPERATURES IN CELSIUS
  WCI - WIND CHILL INDEX
   HX - HEAT INDEX
  VSB - VISIBILITY
$$



USA.gov is the U.S. government's official web portal to all federal, state and local government web resources and services.